204P/LINEAR-NEAT (2022)

Japanese version
Home page
Updated on March 27, 2023

---------------------------------------------------------------------

* Profile

* Pictures

* Orbital Elements

Epoch 2023 Feb. 25.0 TT = JDT 2460000.5
T 2022 Nov. 16.86307 TT                                 Rudenko
q   1.8343730            (2000.0)            P               Q
n   0.14540218     Peri.  356.65426     -0.26177189     -0.95896234
a   3.5816964      Node   108.49922     +0.88813456     -0.28352595
e   0.4878480      Incl.    6.59613     +0.37774658     +0.00206439
P   6.78
>From 841 observations 2015 Oct. 11-2023 Feb. 26, mean residual 0".5.
     Nongravitational parameters A1 = +0.42, A2 = -0.0359.

* Finding Charts

* Magnitudes Graph

        m1 = 9.5 + 5 log d + 25 log r(t - 50)

---------------------------------------------------------------------

The orbital elements are published on M.P.E.C. 2023-D72.
The charts are made with StellaNavigator Ver.10 (AstroArts).
The magnitudes graphs are made with Comet for Windows.

---------------------------------------------------------------------

Copyright(C) Seiichi Yoshida (comet@aerith.net). All rights reserved.